Weather in Kushoky

Kazakhstan     50°14′14″N   73°24′07″E
temp.,
°C
wind,
m/s
gust,
m/s
humid.,
%
clouds,
%
prec.,
mm/h
press.,
hPa
HPBL,
m
13 april, tue
tue1300:00+6ne485129 0.0 1032119
03:00+4ne47605 0.0 103286
06:00+2nne5107440 0.0 1034157
09:00+5ne710678 0.0 1035413
12:00+5ne71093100 0.0 1036467
15:00+6ne8107699 0.0 1037648
18:00+9ne810500 0.0 1036942
21:00+4ne511640 0.0 1038302
14 april, wed
wed1400:00+2ne510770 0.0 1039232
03:00+1ene49833 0.0 1039162
06:000ene46790 0.0 1039111
09:00+5e46530 0.0 1037338
12:00+10e55330 0.0 1035708
15:00+13ene44290 0.0 1032902
18:00+13ne55310 0.0 1031828
21:00+9ne44470 0.0 103149
15 april, thu
thu1500:00+6ene33525 0.0 103138
03:00+5ene34530 0.0 103037
06:00+4ene33550 0.0 102932
09:00+8ene45430 0.0 1028248
12:00+13ene44280 0.0 1027805
15:00+16ene44230 0.0 10241123
18:00+16ene55260 0.0 10231171
21:00+11ene45450 0.0 102363
16 april, fri
fri1600:00+9e45530 0.0 102256
03:00+7ese34580 0.0 102137
06:00+6ese44620 0.0 102040
09:00+10se46480 0.0 1018256
12:00+15se44345 0.0 1015955
15:00+18sse2325100 0.0 10131707
18:00+18wsw1325100 0.0 10111820
21:00+14nne3337100 0.0 101118
17 april, sat
sat1700:00+11nne464473 0.0 100973
03:00+10n225182 0.0 100814
06:00+8n45595 0.0 101059
09:00+11n67540 0.0 1011407
12:00+12nne54610 0.0 1012836
15:00+10nne656924 0.0 1014622
18:00+16w67295 0.0 10092224
21:00+12nw33445 0.0 100932